Flag for Uzbekistan Weather past 2 weeks in Tashkent, Uzbekistan

Now
43 °F

Overcast.


Feels Like: 37 °F
Forecast: 30 / 49 °F
Wind: 10 mph from West

Location: Tashkent

Current Time: Feb 27, 2015 at 6:46:14 PM

Latest Report: Feb 27, 2015 at 6:00 PM


Visibility: N/A

Pressure: 30.39 "Hg

Humidity: 71%

Dew point: 34 °F

Location of TashkentLocation

Historic Weather in Tashkent — Graph

°F

Tashkent temperature yesterday

Maximum temperature yesterday: 39 °F (at 1:30 PM)
Minimum temperature yesterday: 34 °F (at 12:00 AM)
Average temperature yesterday: 37 °F

Past Weeks' High & Low Weather Summary

 TemperatureHumidityPressure
High57 °F (Feb 14, 1:30 PM)100% (Feb 12, 5:30 PM)30.39 "Hg (Feb 12, 5:30 PM)
Low32 °F (Feb 25, 5:30 AM)27% (Feb 20, 3:30 PM)29.86 "Hg (Feb 23, 11:00 AM)
Average44 °F79%30.10 "Hg
* Reported Feb 12 5:00 PM — Feb 27 5:30 PM, Tashkent, Weather by CustomWeather, © 2015

Note: Actual official high and low records may vary slightly from our data, if they occured in-between our weather recording intervals... More about our weather records

Advertising

Tashkent weather history for previous 24 hours

 ConditionsComfort  
Time TempWeatherWind HumidityBarometerVisibility
5:30 PM
Fri, Feb 27
43 °FOvercast.9 mph71%30.39 "Hg4 mi
5:00 PM43 °FOvercast.9 mph71%30.39 "Hg4 mi
4:30 PM45 °FOvercast.7 mph66%30.36 "Hg4 mi
4:00 PM45 °FClear.7 mph66%30.36 "Hg4 mi
3:30 PM45 °FClear.7 mph66%30.36 "Hg4 mi
3:00 PM45 °FClear.7 mph66%30.36 "Hg4 mi
2:30 PM43 °FOvercast.7 mph71%30.36 "Hg4 mi
2:00 PM43 °FOvercast.6 mph71%30.36 "Hg4 mi
1:30 PM43 °FOvercast.6 mph71%30.36 "Hg4 mi
1:00 PM43 °FOvercast.5 mph66%30.36 "Hg4 mi
12:30 PM43 °FOvercast.5 mph66%30.36 "Hg4 mi
12:00 PM43 °FOvercast.2 mph66%30.39 "Hg4 mi
11:30 AM43 °FOvercast.3 mph61%30.36 "Hg4 mi
11:00 AM43 °FPassing clouds.3 mph71%30.36 "HgN/A
10:30 AM41 °FSunny.2 mph70%30.36 "Hg10 mi
10:00 AM41 °FClear.No wind70%30.36 "Hg4 mi
9:30 AM41 °FClear.2 mph70%30.36 "Hg4 mi
9:00 AM39 °FClear.No wind87%30.36 "Hg4 mi
8:30 AM37 °FClear.No wind93%30.36 "Hg4 mi
8:00 AM37 °FFog.2 mph93%30.36 "Hg3 mi
7:30 AM37 °FClear.2 mph87%30.33 "Hg4 mi
7:00 AM37 °FFog.3 mph87%30.33 "Hg2 mi
6:30 AM37 °FFog.No wind87%30.33 "Hg2 mi
6:00 AM37 °FFog.2 mph87%30.33 "Hg2 mi
5:30 AM37 °FFog.2 mph87%30.33 "Hg2 mi
5:00 AM37 °FOvercast.3 mph87%30.30 "HgN/A
4:30 AM37 °FOvercast.3 mph81%30.30 "HgN/A
4:00 AM37 °FOvercast.2 mph81%30.30 "HgN/A
3:30 AM37 °FOvercast.3 mph87%30.30 "HgN/A
3:00 AM37 °FOvercast.3 mph87%30.30 "HgN/A
2:30 AM37 °FOvercast.3 mph81%30.30 "HgN/A
2:00 AM37 °FOvercast.3 mph87%30.30 "HgN/A
1:30 AM37 °FOvercast.3 mph87%30.30 "HgN/A
1:00 AM37 °FOvercast.3 mph87%30.30 "HgN/A
12:30 AM37 °FOvercast.3 mph87%30.30 "HgN/A
12:00 AM37 °FOvercast.3 mph87%30.30 "HgN/A
11:30 PM
Thu, Feb 26
37 °FOvercast.3 mph87%30.30 "HgN/A
11:00 PM37 °FOvercast.5 mph87%30.30 "HgN/A
10:30 PM37 °FOvercast.3 mph87%30.30 "HgN/A
10:00 PM37 °FPassing clouds.3 mph87%30.30 "HgN/A
9:30 PM39 °FPassing clouds.5 mph81%30.30 "HgN/A
9:00 PM39 °FOvercast.6 mph81%30.30 "HgN/A
8:30 PM39 °FLight rain. Overcast.6 mph81%30.30 "HgN/A
8:00 PM39 °FLight rain. Overcast.6 mph81%30.30 "HgN/A
7:30 PM39 °FOvercast.6 mph81%30.30 "HgN/A
7:00 PM39 °FOvercast.6 mph75%30.30 "HgN/A
6:30 PM39 °FOvercast.6 mph75%30.30 "HgN/A
6:00 PM39 °FOvercast.6 mph75%30.27 "HgN/A
Weather by CustomWeather, © 2015

See weather overviewHow to use our weather pages